Location: Laterina
(43.5167°N, 11.7167°E)
Time: 04:47:55
(UTC+00:00)

Cosmos 1125 Rocket - Pass Details

Date: 24 June 2021
Orbit: 757 x 780 km, 74.0° (Epoch: 26 July)

Event Time Altitude Azimuth Distance (km) Brightness Sun altitude
Rises 00:19:40 0° 345° (NNW) 3,247 7.7 -21.5°
Reaches altitude 10° 00:22:11 10° 353° (N) 2,320 6.9 -21.3°
Maximum altitude 00:27:09 41° 63° (ENE) 1,122 4.7 -21.1°
Enters shadow 00:31:51 11° 132° (SE) 2,226 5.7 -20.8°
